Location: *
(50.6089°N, 2.2719°E)
Time: 05:39:37
(UTC+00:00)

STARLINK-58 - Pass Details

Date: 18 October 2019
Orbit: 548 x 551 km, 53.0° (Epoch: 13 November)

Event Time Altitude Azimuth Distance (km) Brightness Sun altitude
Rises 17:30:09 0° 247° (WSW) 2,711 9.0 -6.5°
Reaches altitude 10° 17:32:22 10° 247° (WSW) 1,820 7.8 -6.9°
Maximum altitude 17:36:31 86° 160° (SSE) 556 3.6 -7.5°
Drops below altitude 10° 17:40:40 10° 71° (ENE) 1,827 5.6 -8.2°
Enters shadow 17:40:41 10° 71° (ENE) 1,831 5.6 -8.2°
